South Haven, MI

3:46 AM EDT on May 01, 2017 (GMT -0400)
South Haven

Weather History for KLWA - February, 2013

Change the Weather History Date:

Tuesday, February 26, 2013

  Actual Average (KBEH) Record (KBEH)
Temperature  
Mean Temperature 33 °F -  
Max Temperature 36 °F 37 °F 59 °F (1957)
Min Temperature 30 °F 20 °F -5 °F (1963)
Degree Days  
Heating Degree Days 32    
Moisture  
Dew Point 26 °F    
Average Humidity 78    
Maximum Humidity 97    
Minimum Humidity 55    
Precipitation  
Precipitation 0.00 in - - ()
Sea Level Pressure  
Sea Level Pressure 29.71 in    
Wind  
Wind Speed 10 mph (ENE)    
Max Wind Speed 21 mph    
Max Gust Speed 38 mph    
Visibility 7 miles    
Events Rain , Snow    
Averages and records for this station are not official NWS values.
T = Trace of Precipitation, MM = Missing Value Source: NWS Daily Summary

Daily Weather History Graph

Daily Weather History Graph

Search for Another Location

Airport or City:

Trip Planner

Search our weather history database for the weather conditions in past years. The results will help you decide how hot, cold, wet, or windy it might be!

Date:

Astronomy

Feb. 26, 2013 Rise Set
Actual Time 7:24 AM EST 6:31 PM EST
Civil Twilight 6:56 AM EST 6:59 PM EST
Nautical Twilight 6:24 AM EST 7:32 PM EST
Astronomical Twilight 5:51 AM EST 8:04 PM EST
Moon 7:50 PM EST (2/26) 7:25 AM EST (2/26)
Length of Visible Light 12h 03m
Length of Day
11h 06m
Full, 99% of the Moon is Illuminated
Feb 26
Full
Mar 4
Last Quarter
Mar 11
New
Mar 19
First Quarter
Mar 27
Full

Hourly Weather History & Observations

Time (EST) Temp. Windchill Dew Point Humidity Pressure Visibility Wind Dir Wind Speed Gust Speed Precip Events Conditions
12:15 AM 30.9 °F 26.2 °F 23.0 °F 72% 30.05 in 10.0 mi East 4.6 mph - N/A   Clear
12:35 AM 30.9 °F 26.2 °F 23.0 °F 72% 30.03 in 10.0 mi ENE 4.6 mph - N/A   Clear
12:54 AM 30.9 °F 26.2 °F 23.0 °F 72% 30.03 in 10.0 mi ENE 4.6 mph - N/A   Clear
1:15 AM 30.6 °F 23.8 °F 23.0 °F 74% 30.02 in 10.0 mi East 6.9 mph - N/A   Clear
1:35 AM 30.6 °F 23.1 °F 23.0 °F 74% 30.01 in 10.0 mi ENE 8.1 mph - N/A   Clear
1:54 AM 30.7 °F 22.6 °F 23.0 °F 73% 30.01 in 10.0 mi East 9.2 mph - N/A   Clear
2:14 AM 30.6 °F 23.1 °F 22.8 °F 73% 30.00 in 10.0 mi East 8.1 mph - N/A   Clear
2:35 AM 30.6 °F 22.4 °F 22.5 °F 72% 29.99 in 10.0 mi East 9.2 mph 16.1 mph N/A   Clear
2:54 AM 30.7 °F 22.6 °F 22.1 °F 70% 29.99 in 10.0 mi East 9.2 mph 16.1 mph N/A   Clear
3:14 AM 30.9 °F 23.5 °F 21.6 °F 68% 29.97 in 10.0 mi East 8.1 mph 16.1 mph N/A   Clear
3:34 AM 30.7 °F 22.6 °F 21.2 °F 68% 29.96 in 10.0 mi East 9.2 mph - N/A   Clear
3:55 AM 30.7 °F 22.6 °F 20.8 °F 67% 29.95 in 10.0 mi East 9.2 mph - N/A   Clear
4:14 AM 30.6 °F 21.8 °F 20.5 °F 66% 29.94 in 10.0 mi East 10.4 mph - N/A   Clear
4:35 AM 30.6 °F 21.8 °F 20.3 °F 66% 29.92 in 10.0 mi East 10.4 mph - N/A   Clear
4:54 AM 30.7 °F 21.4 °F 20.3 °F 65% 29.91 in 10.0 mi East 11.5 mph 19.6 mph N/A   Clear
5:15 AM 30.9 °F 21.2 °F 20.7 °F 66% 29.89 in 10.0 mi ENE 12.7 mph 18.4 mph N/A   Clear
5:35 AM 31.1 °F 21.4 °F 20.8 °F 66% 29.90 in 10.0 mi East 12.7 mph 17.3 mph N/A   Clear
5:55 AM 31.1 °F 23.1 °F 21.0 °F 66% 29.89 in 10.0 mi East 9.2 mph - N/A   Clear
6:13 AM 31.1 °F 22.4 °F 21.2 °F 67% 29.88 in 10.0 mi East 10.4 mph 18.4 mph N/A   Clear
6:35 AM 31.1 °F 22.4 °F 21.2 °F 67% 29.88 in 10.0 mi East 10.4 mph 16.1 mph N/A   Clear
6:54 AM 31.1 °F 20.9 °F 21.2 °F 67% 29.85 in 10.0 mi NE 13.8 mph 17.3 mph N/A   Clear
7:15 AM 31.3 °F 22.7 °F 21.2 °F 66% 29.84 in 10.0 mi East 10.4 mph 20.7 mph N/A   Clear
7:34 AM 31.5 °F 21.8 °F 21.4 °F 66% 29.84 in 10.0 mi East 12.7 mph 20.7 mph N/A   Clear
7:55 AM 31.6 °F 22.6 °F 21.9 °F 67% 29.84 in 10.0 mi East 11.5 mph 19.6 mph N/A   Clear
8:15 AM 31.8 °F 21.4 °F 21.9 °F 67% 29.84 in 10.0 mi East 15.0 mph 19.6 mph N/A   Clear
8:35 AM 32.0 °F 21.6 °F 21.7 °F 66% 29.83 in 10.0 mi East 15.0 mph 23.0 mph N/A   Clear
8:55 AM 32.0 °F 21.6 °F 21.9 °F 66% 29.80 in 10.0 mi East 15.0 mph 25.3 mph N/A   Clear
9:14 AM 32.2 °F 22.7 °F 21.9 °F 66% 29.80 in 10.0 mi East 12.7 mph 20.7 mph N/A   Scattered Clouds
9:34 AM 32.9 °F 22.8 °F 21.7 °F 64% 29.78 in 10.0 mi East 15.0 mph 24.2 mph N/A   Scattered Clouds
9:55 AM 33.1 °F 23.4 °F 21.9 °F 64% 29.77 in 10.0 mi East 13.8 mph 18.4 mph N/A   Mostly Cloudy
10:15 AM 33.8 °F 23.9 °F 21.9 °F 62% 29.74 in 10.0 mi East 15.0 mph 20.7 mph N/A   Scattered Clouds
10:34 AM 34.7 °F 25.1 °F 21.9 °F 60% 29.71 in 10.0 mi ENE 15.0 mph 26.5 mph N/A   Clear
10:54 AM 35.6 °F 25.2 °F 21.9 °F 58% 29.70 in 10.0 mi ENE 18.4 mph 26.5 mph N/A   Clear
11:14 AM 36.0 °F 25.6 °F 21.9 °F 57% 29.68 in 10.0 mi East 18.4 mph 29.9 mph N/A   Scattered Clouds
11:35 AM 36.0 °F 26.0 °F 22.5 °F 58% 29.67 in 10.0 mi East 17.3 mph 24.2 mph N/A   Mostly Cloudy
11:55 AM 36.5 °F 27.4 °F 22.3 °F 56% 29.65 in 10.0 mi East 15.0 mph 27.6 mph N/A   Overcast
12:15 PM 36.9 °F 26.8 °F 22.1 °F 55% 29.64 in 10.0 mi East 18.4 mph 38.0 mph N/A   Overcast
12:35 PM 36.3 °F 26.1 °F 23.0 °F 59% 29.62 in 10.0 mi East 18.4 mph 31.1 mph N/A   Light Drizzle
12:55 PM 34.9 °F 23.6 °F 25.0 °F 67% 29.60 in 5.0 mi East 20.7 mph 31.1 mph N/A Rain Light Rain
1:15 PM 34.0 °F 23.8 °F 26.6 °F 74% 29.57 in 4.0 mi ENE 16.1 mph 31.1 mph N/A Rain Light Rain
1:35 PM 33.6 °F 23.3 °F 27.3 °F 78% 29.57 in 5.0 mi East 16.1 mph 27.6 mph N/A Rain Light Rain
1:54 PM 33.4 °F 23.5 °F 27.7 °F 79% 29.57 in 5.0 mi East 15.0 mph 27.6 mph N/A Rain Light Rain
2:14 PM 33.1 °F 23.0 °F 28.4 °F 83% 29.59 in 4.0 mi East 15.0 mph 25.3 mph N/A Rain Rain
2:35 PM 32.9 °F 25.3 °F 29.3 °F 87% 29.57 in 3.0 mi East 9.2 mph 17.3 mph N/A Rain Rain
2:54 PM 32.9 °F 25.3 °F 29.3 °F 87% 29.56 in 4.0 mi East 9.2 mph 18.4 mph N/A Snow Light Snow
3:15 PM 32.9 °F 23.7 °F 29.8 °F 88% 29.56 in 5.0 mi ENE 12.7 mph 19.6 mph N/A Snow Light Snow
3:35 PM 32.2 °F 23.2 °F 30.4 °F 93% 29.55 in 0.8 mi ENE 11.5 mph 16.1 mph N/A Snow Light Snow
3:55 PM 32.2 °F 23.8 °F 30.7 °F 94% 29.54 in 0.8 mi ENE 10.4 mph 18.4 mph N/A Snow Light Snow
4:15 PM 32.2 °F 23.8 °F 31.1 °F 96% 29.54 in 1.2 mi ENE 10.4 mph - N/A Snow Light Snow
4:35 PM 32.4 °F 24.6 °F 31.1 °F 95% 29.55 in 1.0 mi East 9.2 mph - N/A Snow Snow
4:55 PM 32.5 °F 24.2 °F 31.1 °F 94% 29.54 in 1.5 mi ENE 10.4 mph - N/A Snow Light Snow
5:15 PM 32.5 °F 23.7 °F 31.1 °F 94% 29.54 in 1.8 mi ENE 11.5 mph 16.1 mph N/A Snow Light Snow
5:34 PM 32.5 °F 24.2 °F 31.1 °F 94% 29.54 in 2.5 mi ENE 10.4 mph 19.6 mph N/A Snow Light Snow
5:54 PM 32.5 °F 24.8 °F 31.1 °F 94% 29.54 in 1.2 mi ENE 9.2 mph 20.7 mph N/A Snow Light Snow
6:15 PM 32.5 °F 23.7 °F 31.1 °F 94% 29.54 in 1.5 mi East 11.5 mph 17.3 mph N/A Snow Light Snow
6:35 PM 32.5 °F 24.8 °F 31.5 °F 96% 29.54 in 1.5 mi ENE 9.2 mph - N/A Snow Light Snow
6:55 PM 32.5 °F 25.5 °F 31.6 °F 96% 29.54 in 2.0 mi ENE 8.1 mph - N/A Snow Heavy Snow
7:15 PM 32.5 °F 24.8 °F 31.8 °F 97% 29.54 in 1.8 mi ENE 9.2 mph - N/A Snow Light Snow
7:35 PM 32.5 °F 24.8 °F 31.6 °F 96% 29.54 in 3.0 mi ENE 9.2 mph - N/A Snow Light Snow
7:55 PM 32.5 °F 25.5 °F 31.6 °F 96% 29.54 in 3.0 mi ENE 8.1 mph 17.3 mph N/A Snow Light Snow
8:15 PM 32.5 °F 24.8 °F 31.5 °F 96% 29.53 in 2.5 mi ENE 9.2 mph - N/A Snow Light Snow
8:34 PM 32.5 °F 24.2 °F 31.5 °F 96% 29.52 in 2.5 mi ENE 10.4 mph - N/A Snow Light Snow
8:55 PM 32.5 °F 24.8 °F 31.5 °F 96% 29.52 in 3.0 mi ENE 9.2 mph - N/A   Overcast
9:14 PM 32.5 °F 25.5 °F 31.3 °F 95% 29.51 in 7.0 mi ENE 8.1 mph - N/A   Overcast
9:35 PM 32.9 °F 25.9 °F 31.3 °F 94% 29.51 in 7.0 mi ENE 8.1 mph 16.1 mph N/A   Overcast
9:54 PM 32.9 °F 25.9 °F 31.1 °F 93% 29.51 in 7.0 mi ENE 8.1 mph - N/A Snow Snow
10:15 PM 32.9 °F 26.7 °F 31.5 °F 94% 29.50 in 3.0 mi ENE 6.9 mph - N/A Snow Light Snow
10:34 PM 32.5 °F 25.5 °F 31.6 °F 96% 29.50 in 1.8 mi ENE 8.1 mph - N/A Snow Light Snow
10:54 PM 32.5 °F 26.2 °F 31.6 °F 96% 29.49 in 2.5 mi ENE 6.9 mph - N/A Snow Light Snow
11:15 PM 32.5 °F 27.1 °F 31.8 °F 97% 29.49 in 3.0 mi ENE 5.8 mph - N/A Snow Light Snow
11:35 PM 32.5 °F 25.5 °F 31.8 °F 97% 29.48 in 3.0 mi NE 8.1 mph - N/A Snow Light Snow
11:55 PM 32.5 °F 26.2 °F 31.8 °F 97% 29.48 in 3.0 mi ENE 6.9 mph - N/A Snow Light Snow